Chart 1
 
(A maximum of 50 rows are displayed here. Use "Export Data" to see all rows in the date range.)
Date Collected Temp WindChill
(Celcius)
WindSpeed
(km/hr)
Gust
(km/hr)
Wind Direction
(degrees)
2026-05-05 17:00 18.2 16.0 6 12 41
2026-05-05 16:00 17.8 17.8 2 5 17
2026-05-05 15:00 18.2 17.1 4 10 33
2026-05-05 14:00 18.2 17.5 3 11 331
2026-05-05 13:00 18.9 16.5 6 19 341
2026-05-05 12:00 19.4 16.6 7 15 2
2026-05-05 11:00 19.1 16.9 6 13 20
2026-05-05 10:00 19.4 16.6 7 16 24
2026-05-05 09:00 19.3 16.9 6 15 28
2026-05-05 08:00 18.7 16.6 6 15 24
2026-05-05 07:00 18.5 16.3 6 18 24
2026-05-05 06:00 18.4 16.9 5 11 30
2026-05-05 05:00 18.4 17.3 4 11 40
2026-05-05 04:00 18.4 17.1 5 11 35
2026-05-05 03:00 18.5 17.1 5 11 47
2026-05-05 02:00 18.7 18.0 3 8 24
2026-05-05 01:00 18.7 17.2 5 12 24
2026-05-05 00:00 18.8 17.7 4 12 16
2026-05-04 23:00 18.8 16.9 5 15 360
2026-05-04 22:00 18.3 17.3 4 12 9
2026-05-04 21:00 18.8 17.9 4 11 10
2026-05-04 20:00 18.7 16.9 5 12 2
2026-05-04 19:00 18.6 17.5 4 12 355
2026-05-04 18:00 18.6 17.9 4 11 20
2026-05-04 17:00 18.7 18.0 3 10 4
2026-05-04 16:00 18.8 17.8 4 13 22
2026-05-04 15:00 18.9 17.6 5 11 23
2026-05-04 14:00 18.9 17.9 4 11 34
2026-05-04 13:00 19.3 18.2 4 12 359
2026-05-04 12:00 19.4 17.4 6 15 28
2026-05-04 11:00 19.3 17.9 5 11 10
2026-05-04 10:00 18.9 17.7 4 10 29
2026-05-04 09:00 19.5 17.5 6 17 16
2026-05-04 08:00 19.0 17.6 5 13 38
2026-05-04 07:00 20.0 17.9 6 18 31
2026-05-04 06:00 20.2 18.0 6 18 19
2026-05-04 05:00 20.0 17.9 6 16 27
2026-05-04 04:00 20.2 17.8 7 15 24
2026-05-04 03:00 20.0 17.7 7 16 23
2026-05-04 02:00 19.7 17.4 6 22 26
2026-05-04 01:00 18.9 16.8 6 13 42
2026-05-04 00:00 17.7 16.8 4 10 42
2026-05-03 23:00 16.6 16.2 3 7 54
2026-05-03 22:00 16.4 16.1 3 6 60
2026-05-03 21:00 16.9 16.4 4 7 58
2026-05-03 20:00 17.3 17.2 3 6 52
2026-05-03 19:00 17.7 17.7 2 4 69
2026-05-03 18:00 18.3 18.3 2 5 50
2026-05-03 17:00 18.9 18.9 2 5 25
2026-05-03 16:00 19.4 19.4 2 5 5